User: anonymous   Login
Location: Bangkok
(13.7500°N, 100.5170°E)
Time: 16:58:05
(UTC+07:00)
Language:

Cosmos 1802 Rocket - Orbit

View from above orbital plane
View from above orbital plane
View from above satellite
View from above satellite

Ground track
Ground track

The orbit data is extracted from the following two-line orbital elements,

1 17160U 86093B   17016.90305253 +.00000073 +00000-0 +60432-4 0  9992
2 17160 082.9273 176.5344 0038493 208.7633 305.7026 13.74592528511819
Epoch (UTC): 16 January 2017 21:40:23
Eccentricity: 0.0038493
inclination: 82.9273°
perigee height: 955 km
apogee height: 1011 km
right ascension of ascending node: 176.5344°
argument of perigee: 208.7633°
revolutions per day: 13.74592528
mean anomaly at epoch: 305.7026°
orbit number at epoch: 51181

The dashed part of the orbit path shows where the satellite is in the earth's shadow,  

DLR